• Join FlightAware (Why Join?)
  • Login
  • US Flag 
07:26AM EDT


 

Airport Tracker/Info


-or-


 

Live Flight TrackerFlight Track Log ✈ N654DL ✈ 23-Apr-2013 ✈ KSFO - KATL

Flight Track Log - Related Links

Times and Time Zones

All times are in EDT time to prevent confusion due to time zone crossing. See the N654DL flight status page for this flight to view local times or setup timezone preferences in your user account.

Time Position Orientation Groundspeed Altitude Reporting Facility
EDT Latitude Longitude Course Direction KTS MPH feet Rate Location/Type
10:59AM 37.6500 -122.3500 65° Northeast 178 205 1,400  Level Northern Cal TRACON
11:00AM 37.6833 -122.3000 50° Northeast 215 247 3,500 2,220 Climbing Northern Cal TRACON
11:01AM 37.7153 -122.2536 49° Northeast 236 272 5,600 2,640 Climbing Oakland Center
11:02AM 37.6530 -122.2381 72° East  Level FlightAware Approximate
11:02AM 37.7486 -122.1714 63° Northeast 264 304 8,500  Level Oakland Center
11:03AM 37.7021 -122.0781 63° Northeast  Level FlightAware Approximate
11:03AM 37.7803 -122.0586 70° East 285 328 10,900  Level Oakland Center
11:04AM 37.7613 -121.9232 65° Northeast  Level FlightAware Approximate
11:04AM 37.8128 -121.9419 71° East 348 400 12,500  Level Oakland Center
11:05AM 37.8478 -121.8192 70° East 370 426 15,100 2,340 Climbing Oakland Center
11:06AM 37.8831 -121.6928 70° East 382 440 17,300 1,980 Climbing Oakland Center
11:07AM 37.9197 -121.5606 71° East 395 455 19,200 1,860 Climbing Oakland Center
11:08AM 37.9617 -121.4086 71° East 415 478 21,100 1,860 Climbing Oakland Center
11:09AM 38.0014 -121.2678 70° East 424 488 23,100 1,560 Climbing Oakland Center
11:10AM 38.0419 -121.1197 71° East 443 510 24,300 1,260 Climbing Oakland Center
11:11AM 38.0836 -120.9683 71° East 455 524 25,800 1,380 Climbing Oakland Center
11:12AM 38.1206 -120.8100 73° East 468 539 27,200 1,320 Climbing Oakland Center
11:13AM 38.1528 -120.6481 76° East 475 547 28,500 1,320 Climbing Oakland Center
11:14AM 38.1797 -120.4833 78° East 478 550 30,000 1,440 Climbing Oakland Center
11:15AM 38.2106 -120.3197 76° East 477 549 31,500 1,440 Climbing Oakland Center
11:16AM 38.2458 -120.1244 77° East 474 545 33,000 1,260 Climbing Oakland Center
11:17AM 38.2733 -119.9631 78° East 471 542 34,200 1,200 Climbing Oakland Center
11:18AM 38.3017 -119.8033 77° East 464 534 35,500 960 Climbing Oakland Center
11:19AM 38.3283 -119.6419 78° East 467 537 36,200 660 Climbing Oakland Center
11:20AM 38.3567 -119.4794 77° East 469 540 36,900 360 Climbing Oakland Center
11:21AM 38.3811 -119.3328 78° East 467 537 37,000  Climbing Oakland Center
11:23AM 38.4389 -118.9806 78° East 466 536 37,000  Level Oakland Center
11:24AM 38.4656 -118.8183 78° East 469 540 37,000  Level Oakland Center
11:25AM 38.4908 -118.6572 79° East 467 537 37,000  Level Oakland Center
11:26AM 38.5172 -118.4953 78° East 468 539 37,000  Level Oakland Center
11:27AM 38.5433 -118.3322 78° East 471 542 37,000  Level Oakland Center
11:28AM 38.5681 -118.1703 79° East 468 539 37,000  Level Oakland Center
11:29AM 38.5956 -117.9956 79° East 469 540 37,000  Level Oakland Center
11:30AM 38.6203 -117.8339 79° East 465 535 37,000  Level Oakland Center
11:31AM 38.6347 -117.7364 79° East 464 534 37,000  Level Salt Lake Center
11:31AM 38.6447 -117.6711 79° East 463 533 37,000  Level Oakland Center
11:32AM 38.6686 -117.5081 79° East 463 533 37,000  Level Oakland Center
11:33AM 38.6933 -117.3433 79° East 468 539 37,000  Level Oakland Center
11:34AM 38.7075 -117.2419 80° East 473 544 37,000  Level Salt Lake Center
11:35AM 38.7325 -117.0706 79° East 483 556 37,000  Level Salt Lake Center
11:35AM 38.7428 -117.0025 79° East 485 558 37,000  Level Oakland Center
11:36AM 38.7675 -116.8269 80° East 496 571 37,000  Level Oakland Center
11:37AM 38.7825 -116.7214 80° East 498 573 37,000  Level Salt Lake Center
11:38AM 38.8083 -116.5439 79° East 503 579 37,000  Level Salt Lake Center
11:38AM 38.8228 -116.4369 80° East 506 582 37,000  Level Oakland Center
11:39AM 38.8378 -116.3289 80° East 509 586 37,000  Level Salt Lake Center
11:40AM 38.8622 -116.1497 80° East 509 586 37,000  Level Salt Lake Center
11:41AM 38.8864 -115.9692 80° East 511 588 37,000  Level Salt Lake Center
11:42AM 38.9106 -115.7892 80° East 512 589 37,000  Level Salt Lake Center
11:43AM 38.9347 -115.6078 80° East 515 593 37,000  Level Salt Lake Center
11:44AM 38.9589 -115.4253 80° East 517 595 37,000  Level Salt Lake Center
11:45AM 38.9858 -115.2244 80° East 523 602 37,000  Level Salt Lake Center
11:46AM 39.0089 -115.0425 81° East 519 597 37,000  Level Salt Lake Center
11:47AM 39.0264 -114.8572 83° East 524 603 37,000  Level Salt Lake Center
11:48AM 39.0150 -114.6275 94° East 539 620 37,000  Level Salt Lake Center
11:49AM 39.0044 -114.4392 94° East 532 612 37,000  Level Salt Lake Center
11:50AM 38.9944 -114.2478 94° East 536 617 37,000  Level Salt Lake Center
11:51AM 38.9836 -114.0578 94° East 535 616 37,000  Level Salt Lake Center
11:53AM 38.9714 -113.8692 95° East 530 610 37,000  Level Salt Lake Center
11:54AM 38.9606 -113.6783 94° East 535 616 37,000  Level Salt Lake Center
11:55AM 38.9492 -113.4894 94° East 533 613 37,000  Level Salt Lake Center
11:56AM 38.9364 -113.2608 94° East 535 616 37,000  Level Salt Lake Center
11:57AM 38.9244 -113.0725 95° East 533 613 37,000  Level Salt Lake Center
11:58AM 38.9119 -112.8842 95° East 531 611 37,000  Level Salt Lake Center
11:59AM 38.8986 -112.6953 95° East 531 611 37,000  Level Salt Lake Center
12:00PM 38.8853 -112.5067 95° East 531 611 37,000  Level Salt Lake Center
12:01PM 38.8728 -112.3178 95° East 530 610 37,000  Level Salt Lake Center
12:02PM 38.8586 -112.1294 95° East 531 611 37,000  Level Salt Lake Center
12:03PM 38.8419 -111.9044 95° East 528 608 37,000  Level Salt Lake Center
12:04PM 38.8283 -111.7158 95° East 530 610 37,000  Level Salt Lake Center
12:05PM 38.8136 -111.5281 96° East 530 610 37,000  Level Salt Lake Center
12:06PM 38.7978 -111.3397 96° East 531 611 37,000  Level Salt Lake Center
12:07PM 38.7831 -111.1519 96° East 530 610 37,000  Level Salt Lake Center
12:08PM 38.7686 -110.9661 96° East 526 605 37,000  Level Salt Lake Center
12:09PM 38.7500 -110.7456 96° East 530 610 37,000  Level Salt Lake Center
12:10PM 38.7325 -110.5647 97° East 533 613 37,000  Level Salt Lake Center
12:11PM 38.7156 -110.3564 96° East 531 611 37,000  Level Salt Lake Center
12:12PM 38.7025 -110.2069 96° East 529 609 37,000  Level Denver Center
12:13PM 38.6833 -109.9986 97° East 529 609 37,000  Level Denver Center
12:14PM 38.6664 -109.8206 97° East 528 608 37,000  Level Denver Center
12:15PM 38.6472 -109.6150 97° East 523 602 37,000  Level Denver Center
12:16PM 38.6300 -109.4353 97° East 530 610 37,000  Level Denver Center
12:17PM 38.6275 -109.2267 91° East 529 609 37,000  Level Denver Center
12:18PM 38.6328 -109.0503 88° East 521 600 37,000  Level Denver Center
12:19PM 38.6400 -108.8422 87° East 527 606 37,000  Level Denver Center
12:20PM 38.6467 -108.6664 87° East 521 600 37,000  Level Denver Center
12:21PM 38.6567 -108.4667 86° East 508 585 37,000  Level Denver Center
12:22PM 38.6642 -108.2933 87° East 511 588 37,000  Level Denver Center
12:23PM 38.6742 -108.0878 86° East 518 596 37,000  Level Denver Center
12:24PM 38.6836 -107.9072 86° East 531 611 37,000  Level Denver Center
12:25PM 38.6961 -107.6967 86° East 533 613 37,000  Level Denver Center
12:27PM 38.7064 -107.5167 86° East 532 612 37,000  Level Denver Center
12:28PM 38.7022 -107.3092 91° East 528 608 37,000  Level Denver Center
12:29PM 38.6800 -107.1381 99° East 526 605 37,000  Level Denver Center
12:30PM 38.6567 -106.9553 99° East 525 604 37,000  Level Denver Center
12:31PM 38.6317 -106.7739 100° East 521 600 37,000  Level Denver Center
12:32PM 38.6006 -106.5544 100° East 524 603 37,000  Level Denver Center
12:33PM 38.5744 -106.3681 100° East 532 612 37,000  Level Denver Center
12:34PM 38.5497 -106.1803 99° East 537 618 37,000  Level Denver Center
12:35PM 38.5192 -105.9694 100° East 537 618 37,000  Level Denver Center
12:36PM 38.4931 -105.7886 100° East 541 623 37,000  Level Denver Center
12:37PM 38.4656 -105.5989 100° East 540 621 37,000  Level Denver Center
12:38PM 38.4378 -105.4103 101° East 540 621 37,000  Level Denver Center
12:39PM 38.4053 -105.1872 100° East 545 627 37,000  Level Denver Center
12:40PM 38.3764 -104.9992 101° East 540 621 37,000  Level Denver Center
12:41PM 38.3478 -104.8103 101° East 540 621 37,000  Level Denver Center
12:42PM 38.3175 -104.6136 101° East 542 624 37,000  Level Denver Center
12:43PM 38.2881 -104.4364 102° East 537 618 37,000  Level Denver Center
12:44PM 38.2561 -104.2297 101° East 531 611 37,000  Level Denver Center
12:45PM 38.2283 -104.0544 101° East 526 605 37,000  Level Denver Center
12:46PM 38.1956 -103.8539 102° East 518 596 37,000  Level Denver Center
12:47PM 38.1633 -103.6533 101° East 516 594 37,000  Level Denver Center
12:48PM 38.1300 -103.4525 102° East 518 596 37,000  Level Denver Center
12:49PM 38.1014 -103.2814 102° East 517 595 37,000  Level Denver Center
12:51PM 38.0861 -103.0750 95° East 531 611 37,000  Level Denver Center
12:52PM 38.0750 -102.8944 94° East 537 618 37,000  Level Denver Center
12:53PM 38.0600 -102.6817 95° East 543 625 37,000  Level Denver Center
12:54PM 38.0481 -102.4975 95° East 547 629 37,000  Level Denver Center
12:55PM 38.0344 -102.2814 95° East 551 634 37,000  Level Denver Center
12:56PM 38.0244 -102.0961 94° East 551 634 37,000  Level Denver Center
12:57PM 37.9983 -101.9161 100° East 545 627 37,000  Level Denver Center
12:58PM 37.9583 -101.7111 104° East 538 619 37,000  Level Denver Center
12:59PM 37.9242 -101.5372 104° East 533 613 37,000  Level Denver Center
01:00PM 37.8844 -101.3342 104° East 532 612 37,000  Level Denver Center
01:01PM 37.8500 -101.1628 104° East 525 604 37,000  Level Denver Center
01:02PM 37.8153 -100.9894 104° East 525 604 37,000  Level Kansas City Center
01:03PM 37.7753 -100.7867 104° East 522 601 37,000  Level Kansas City Center
01:04PM 37.7431 -100.6256 104° East 520 598 37,000  Level Kansas City Center
01:05PM 37.7061 -100.4450 104° East 518 596 37,000  Level Kansas City Center
01:06PM 37.6653 -100.2500 105° East 514 592 37,000  Level Kansas City Center
01:07PM 37.6311 -100.0831 104° East 513 590 37,000  Level Kansas City Center
01:08PM 37.5922 -99.8881 104° East 513 590 37,000  Level Kansas City Center
01:09PM 37.5564 -99.7222 105° East 512 589 37,000  Level Kansas City Center
01:10PM 37.5192 -99.5572 106° East 511 588 37,000  Level Kansas City Center
01:11PM 37.4858 -99.3883 104° East 511 588 37,000  Level Kansas City Center
01:12PM 37.4492 -99.2178 105° East 508 585 37,000  Level Kansas City Center
01:13PM 37.4011 -99.0108 106° East 513 590 37,000  Level Kansas City Center
01:14PM 37.3636 -98.8392 105° East 512 589 37,000  Level Kansas City Center
01:15PM 37.3258 -98.6708 106° East 507 583 37,000  Level Kansas City Center
01:16PM 37.2881 -98.5014 106° East 506 582 37,000  Level Kansas City Center
01:17PM 37.2503 -98.3339 106° East 503 579 37,000  Level Kansas City Center
01:18PM 37.2131 -98.1672 106° East 502 578 37,000  Level Kansas City Center
01:19PM 37.1747 -98.0008 106° East 501 577 37,000  Level Kansas City Center
01:20PM 37.1294 -97.8028 106° East 499 574 37,000  Level Kansas City Center
01:21PM 37.0914 -97.6383 106° East 497 572 37,000  Level Kansas City Center
01:22PM 37.0525 -97.4706 106° East 502 578 37,000  Level Kansas City Center
01:23PM 37.0136 -97.3025 106° East 504 580 37,000  Level Kansas City Center
01:24PM 36.9750 -97.1344 106° East 504 580 37,000  Level Kansas City Center
01:25PM 36.9319 -96.9731 108° East 497 572 37,000  Level Kansas City Center
01:27PM 36.8825 -96.7700 107° East 506 582 37,000  Level Kansas City Center
01:28PM 36.8475 -96.6181 106° East 510 587 37,000  Level Kansas City Center
01:29PM 36.8078 -96.4450 106° East 514 592 37,000  Level Kansas City Center
01:30PM 36.7564 -96.2381 107° East 518 596 37,000  Level Kansas City Center
01:31PM 36.7142 -96.0661 107° East 518 596 37,000  Level Kansas City Center
01:32PM 36.6708 -95.8939 107° East 519 597 37,000  Level Kansas City Center
01:33PM 36.6272 -95.7214 107° East 518 596 37,000  Level Kansas City Center
01:34PM 36.5828 -95.5444 107° East 517 595 37,000  Level Kansas City Center
01:35PM 36.5397 -95.3731 107° East 518 596 37,000  Level Kansas City Center
01:36PM 36.4961 -95.2014 107° East 520 598 37,000  Level Kansas City Center
01:37PM 36.4489 -95.0244 108° East 520 598 37,000  Level Kansas City Center
01:38PM 36.4044 -94.8528 108° East 519 597 37,000  Level Kansas City Center
01:39PM 36.3592 -94.6842 108° East 515 593 37,000  Level Kansas City Center
01:39PM 36.3350 -94.5897 108° East 510 587 37,000  Level Memphis Center
01:40PM 36.2928 -94.4175 107° East 510 587 37,000  Level Memphis Center
01:41PM 36.2553 -94.2844 109° East 510 587 37,000  Level Memphis Center
01:42PM 36.2047 -94.1019 109° East 510 587 37,000  Level Memphis Center
01:43PM 36.1594 -93.9328 108° East 510 587 37,000  Level Memphis Center
01:44PM 36.1142 -93.7664 109° East 510 587 37,000  Level Memphis Center
01:45PM 36.0686 -93.6003 109° East 510 587 37,000  Level Memphis Center
01:46PM 36.0247 -93.4367 108° East 510 587 37,000  Level Memphis Center
01:47PM 35.9786 -93.2708 109° East 510 587 37,000  Level Memphis Center
01:48PM 35.9286 -93.0897 109° East 510 587 37,000  Level Memphis Center
01:49PM 35.8842 -92.9242 108° East 510 587 37,000  Level Memphis Center
01:50PM 35.8372 -92.7614 110° East 510 587 37,000  Level Memphis Center
01:51PM 35.7903 -92.5964 109° East 510 587 37,000  Level Memphis Center
01:52PM 35.7453 -92.4339 109° East 510 587 37,000  Level Memphis Center
01:53PM 35.6978 -92.2717 110° East 504 580 37,000  Level Memphis Center
01:54PM 35.6522 -92.1097 109° East 504 580 37,000  Level Memphis Center
01:55PM 35.6064 -91.9503 109° East 504 580 37,000  Level Memphis Center
01:56PM 35.5603 -91.7889 109° East 498 573 37,000  Level Memphis Center
01:57PM 35.5119 -91.6272 110° East 498 573 37,000  Level Memphis Center
01:58PM 35.4656 -91.4686 110° East 498 573 37,000  Level Memphis Center
01:59PM 35.4292 -91.3381 109° East 498 573 37,000  Level Memphis Center
02:00PM 35.3700 -91.1464 111° Southeast 498 573 37,000  Level Memphis Center
02:01PM 35.3228 -90.9881 110° East 493 567 37,000  Level Memphis Center
02:02PM 35.2714 -90.8250 111° Southeast 493 567 37,000  Level Memphis Center
02:03PM 35.2239 -90.6800 112° Southeast 498 573 37,000  Level Memphis Center
02:04PM 35.1783 -90.5222 109° East 498 573 37,000  Level Memphis Center
02:05PM 35.1283 -90.3569 110° East 498 573 37,000  Level Memphis Center
02:06PM 35.0803 -90.1972 110° East 503 579 37,000  Level Memphis Center
02:07PM 35.0300 -90.0375 111° Southeast 503 579 37,000  Level Memphis Center
02:08PM 34.9958 -89.8703 104° East 508 585 37,000  Level Memphis Center
02:09PM 34.9700 -89.7008 100° East 500 575 37,000  Level Memphis Center
02:10PM 34.9378 -89.5186 102° East 495 570 37,000  Level Memphis Center
02:11PM 34.9242 -89.3694 96° East 495 570 37,000  Level Memphis Center
02:12PM 34.8997 -89.2125 101° East 482 555 37,000  Level Memphis Center
02:13PM 34.8794 -89.0636 99° East 464 534 37,000 -60 Level Memphis Center
02:14PM 34.8547 -88.9069 101° East 464 534 36,900 -540 Descending Memphis Center
02:15PM 34.8322 -88.7556 100° East 464 534 36,000 -480 Descending Memphis Center
02:16PM 34.8050 -88.5992 102° East 469 540 36,000  Level Memphis Center
02:17PM 34.7819 -88.4456 100° East 469 540 36,000  Level Memphis Center
02:18PM 34.7586 -88.2919 100° East 469 540 36,000 -180 Level Memphis Center
02:19PM 34.7328 -88.1383 102° East 469 540 35,700 -540 Descending Memphis Center
02:20PM 34.7072 -87.9850 101° East 469 540 35,000 -360 Descending Memphis Center
02:21PM 34.6831 -87.8264 100° East 469 540 35,000 -480 Level Memphis Center
02:22PM 34.6611 -87.6756 100° East 469 540 34,100 -660 Descending Memphis Center
02:25PM 34.5981 -87.3142 102° East 459 528 33,000 -360 Descending Atlanta Center
02:26PM 34.5667 -87.1542 103° East 472 543 33,000  Level Atlanta Center
02:27PM 34.5353 -86.9917 103° East 485 558 33,000  Level Atlanta Center
02:28PM 34.5056 -86.8317 103° East 485 558 33,000 -780 Level Atlanta Center
02:29PM 34.4736 -86.6694 103° East 485 558 31,500 -1,500 Descending Atlanta Center
02:30PM 34.4394 -86.5044 104° East 491 565 30,100 -1,320 Descending Atlanta Center
02:31PM 34.4094 -86.3400 102° East 496 571 28,900 -1,200 Descending Atlanta Center
02:32PM 34.3789 -86.1781 103° East 491 565 27,800 -1,260 Descending Atlanta Center
02:33PM 34.3461 -86.0114 103° East 491 565 26,400 -1,500 Descending Atlanta Center
02:34PM 34.3133 -85.8469 104° East 491 565 24,800 -2,100 Descending Atlanta Center
02:35PM 34.2819 -85.6931 104° East 481 554 22,200 -2,400 Descending Atlanta Center
02:36PM 34.2506 -85.5442 104° East 467 537 20,100 -2,340 Descending Atlanta Center
02:37PM 34.2208 -85.4031 104° East 444 511 17,600 -2,400 Descending Atlanta Center
02:38PM 34.1931 -85.2669 104° East 428 493 15,300 -2,160 Descending Atlanta Center
02:39PM 34.1858 -85.1336 94° East 405 466 13,300 -1,200 Descending Atlanta Center
02:40PM 34.1492 -85.0378 115° Southeast 331 381 13,000 -180 Descending Atlanta Center
02:41PM 34.0703 -84.9992 158° South 285 328 13,000 -540 Level Atlanta Center
02:42PM 33.9892 -84.9383 148° Southeast 301 346 12,000 -1,200 Descending Atlanta Center
02:43PM 33.9103 -84.9050 161° South 312 359 10,600 -1,380 Descending Atlanta Center
02:44PM 33.8289 -84.8942 174° South 301 346 9,300 -840 Descending Atlanta Center
02:45PM 33.7517 -84.8883 176° South 289 333 9,000 -600 Descending Atlanta Center
02:46PM 33.6744 -84.8825 176° South 284 327 8,100 -1,080 Descending Atlanta Center
02:46PM 33.6333 -84.8333 135° Southeast 279 321 7,000 -1,200 Descending Atlanta TRACON
02:47PM 33.6333 -84.7333 90° East 253 291 5,900 -1,320 Descending Atlanta TRACON
02:48PM 33.6333 -84.6667 90° East 220 253 4,600 -1,500 Descending Atlanta TRACON